ラーソン彗星

261P/Larson (2005)

English version
Home page
Updated on May 27, 2012

---------------------------------------------------------------------

・ プロフィール

符号 261P/2005 N3
発見日 2005年7月5日
発見光度 20.2等
発見者 S. Larson (Mt. Lemmon Survey)

・ 軌道要素

Epoch 2005 Dec. 16.0 TT = JDT 2453720.5
T 2005 Dec. 10.57174 TT                                 MPC
q   2.1970652            (2000.0)            P               Q
n   0.14487787     Peri.   58.50448     +0.99417014     +0.04765276
a   3.5903326      Node   298.60403     -0.08592790     +0.89202323
e   0.3880608      Incl.    6.32494     +0.06513158     +0.44947054
P   6.80
From 105 observations 2005 July 3-2012 May 25, mean residual 0".67.

・ 星図

・ 光度変化

        m1 = 1.5 + 5 logΔ + 45 log r

---------------------------------------------------------------------

軌道要素はM.P.E.C. 2012-K54に掲載されたものです。
星図は StellaNavigator Ver.2.0 for Windows (アストロアーツ 編著 / アスキー出版局刊) で作成したものです。
光度グラフはComet for Windowsで作成したものです。

---------------------------------------------------------------------

Copyright(C) Seiichi Yoshida (comet@aerith.net). All rights reserved.